www.pogodaiklimat.ru

Погода и климат >> Архив погоды >> Бенин >> Kandi


ПОГОДА в Kandi

  • Прогноз погоды в Kandi
  • Монитор погоды в Kandi
  • Климат города

АРХИВ ПОГОДЫ в Kandi

Время (UTC), дата Ветер
(напр.,м/с)
 
Видим.   Явления Облачность Т
(С)
Тd
(С)
f
(%)
Тe
(С)
Тes
(С)
Комфортность P
(гПа)
Po
(гПа)
Тmin
(С)
Tmax
(С)
R
(мм)
R24
(мм)
S
(см)
18 9.08 штиль 0 10 км 9/5 900 м
[Cb cap Ac cuf Ci sp]
+29.5 +23.4 70 +40 +40 очень
душно
1011.7 978.8 +31.0
21 9.08 ЮЗ 1 10 км зарница 9/1 900 м
[Cb cap Ac As Ci sp]
+26.8 +24.2 86 +37 +37 очень
душно
1012.2 979.3
00 10.08 ЮЗ 1 10 км 9/1 600 м
[Cb cap Ac As Ci sp]
+25.0 +23.0 89 +33 +33 очень
душно
1013.6 980.7
03 10.08 ЮЗ 1 10 км зарница 9/4 600 м
[Cb cap Ac As Ci sp]
+24.4 +23.1 92 +32 +32 очень
душно
1012.4 979.6
06 10.08 ЮЗ 1 10 км слабый дождь 9/1 600 м
[Sc diur, vesp Ac As]
+24.1 +23.2 95 +32 +32 очень
душно
1013.3 980.4 +23.6 0.3
09 10.08 ЮЗ 1 10 км {дождь} 9/5 600 м
[Sc Ac trans Ci sp]
+26.0 +23.6 87 +35 +40 очень
душно
1014.4 981.4
12 10.08 СЗ 2 10 км {дождь} 9/8 600 м
[Cu Sc Ac trans Ci sp]
+29.0 +23.3 71 +39 +42 очень
душно
1013.8 980.8 0.0
15 10.08 С 1 10 км 9/6 600 м
[Cu Sc Ac trans Ci sp]
+30.5 +23.7 67 +42 +45 опасность
перегрева
1011.4 978.6
18 10.08 штиль 0 10 км 9/4 600 м
[Cb cap Ac trans Ci sp]
+29.7 +24.5 74 +42 +42 опасность
перегрева
1010.7 977.9 +31.5 0.0
21 10.08 штиль 0 10 км 8/1 900 м
[Cb cap Ci sp]
+26.5 +25.9 97 +40 +40 очень
душно
1012.2 979.3
00 11.08 штиль 0 10 км 9/5 600 м
[Cb cap Ac As]
+26.4 +25.4 94 +38 +38 очень
душно
1013.9 981.0
03 11.08 ЮЗ 1 10 км 9/0
[Ac trans Ci sp]
+25.0 +23.6 92 +34 +34 очень
душно
1012.2 979.5
06 11.08 ЮЗ 1 10 км 6/0
[Ac lent Ci sp]
+24.3 +23.1 93 +32 +33 очень
душно
1012.9 980.0 +24.0 0.0
09 11.08 ЮЗ 2 10 км 9/3 600 м
[Sc Ac cuf]
+27.6 +23.1 77 +37 +41 очень
душно
1015.0 982.0
12 11.08 СЗ 2 10 км 9/6 600 м
[Cu Sc Ci sp]
+30.1 +23.7 69 +41 +49 опасность
перегрева
1013.0 980.3
15 11.08 З 1 10 км 9/5 600 м
[Cu Sc Ci sp]
+31.6 +23.2 61 +42 +47 опасность
перегрева
1010.7 978.0
18 11.08 СЗ 1 10 км 9/3 600 м
[Cb cap Ac trans Ci sp]
+30.9 +25.4 73 +45 +45 опасность
перегрева
1010.9 978.1 +32.1
21 11.08 штиль 0 10 км зарница 9/1 600 м
[Cb cap Ac As Ci sp]
+27.5 +25.3 88 +40 +40 очень
душно
1012.7 979.9
00 12.08 штиль 0 10 км зарница 9/1 600 м
[Cb cap Ac As Ci sp]
+27.0 +25.5 92 +40 +40 очень
душно
1012.9 980.2
03 12.08 СВ 2 8000 м гроза, ливневой дождь 9/4 600 м
[Cb cap Ac As]
+21.5 +20.9 96 +27 +27 душно 1013.2 980.3
06 12.08 З 1 8000 м слабый дождь {гроза} 9/4 600 м
[Sc Ac As]
+21.5 +21.2 98 +27 +27 душно 1011.2 978.3 +20.6 30
09 12.08 Ю 1 10 км {дождь} 9/1 600 м
[Sc Ac As]
+24.3 +22.7 91 +32 +37 очень
душно
1013.0 980.0
12 12.08 Ю 1 10 км {дождь} 9/1 600 м
[Cu Sc Ac As Cs]
+28.6 +24.4 78 +40 +53 опасность
солнечного
удара
1011.7 979.0 0.0
15 12.08 ЮВ 4 6000 м гроза, ливневой дождь 10/1 600 м
[Cb cap As op]
+21.6 +20.7 95 +27 +29 душно 1014.5 981.0
18 12.08 Ю 2 10 км в посл. час дождь {гроза, ливн. осадки} 9/1 700 м
[Sc diur, vesp Ac As]
+22.1 +21.4 96 +29 +29 очень
душно
1009.9 976.6 +29.4 21
21 12.08 штиль 0 10 км 9/0
[Ac As Ci sp]
+22.1 +21.4 96 +29 +29 очень
душно
1012.5 979.2
00 13.08 штиль 0 10 км 9/0
[Ac As Ci sp]
+22.0 +21.6 98 +29 +29 очень
душно
1011.5 978.5
03 13.08 ЮЗ 1 10 км 9/0
[Ac As Ci sp]
+22.1 +21.7 98 +29 +29 очень
душно
1011.6 978.2
06 13.08 З 1 10 км 9/0
[Ac As Ci sp]
+22.2 +21.3 95 +29 +29 очень
душно
1011.7 978.3 +21.3 21
09 13.08 З 2 10 км 9/1 900 м
[Cu hum Ac trans Ci sp]
+25.2 +22.6 86 +33 +39 очень
душно
1013.1 979.9
12 13.08 ЮЗ 2 10 км 9/6 600 м
[Cu Sc Ac trans Ci sp]
+29.0 +24.1 75 +40 +46 очень
душно
1011.4 978.4
15 13.08 ЮЗ 1 10 км 9/5 900 м
[Cb cap Ac trans Ci sp]
+30.2 +24.1 70 +42 +46 опасность
перегрева
1009.3 976.4
18 13.08 З 1 10 км 9/3 600 м
[Cb cap Ac cuf Ci sp]
+29.6 +24.8 75 +42 +42 опасность
перегрева
1008.9 976.0 +30.7
21 13.08 ЮЗ 1 10 км 9/1 900 м
[Cu hum Ac As Ci sp]
+27.0 +25.9 94 +40 +40 очень
душно
1010.9 978.0
00 14.08 штиль 0 10 км зарница 9/1 600 м
[Cb cap Ac As]
+26.3 +24.5 90 +37 +37 очень
душно
1010.2 977.5
03 14.08 ЮВ 3 1200 м сильная гроза, ливневой дождь 9/8 600 м
[Cb cap]
+21.6 +20.5 93 +27 +27 душно 1012.3 979.3
06 14.08 С 1 8000 м слабый ливневой дождь, в посл. час гроза 9/5 600 м
[Sc diur, vesp As op]
+21.5 +21.0 97 +27 +27 душно 1013.6 980.6 +20.0 15
09 14.08 Ю 1 10 км в посл. час дождь 9/6 600 м
[Sc Ac trans Cs]
+22.7 +21.5 93 +30 +34 очень
душно
1012.5 979.4
12 14.08 Ю 1 10 км {дождь} 9/0
[Ac As]
+26.7 +22.5 78 +35 +45 очень
душно
1010.6 977.8 1
15 14.08 ЮЗ 1 10 км {дождь} 9/0
[Ac As Ci sp]
+27.2 +23.6 81 +37 +42 очень
душно
1009.6 976.6
18 14.08 штиль 0 10 км {дождь} 9/1 600 м
[Cu Sc Ac As Ci sp]
+25.9 +23.9 89 +36 +36 очень
душно
1011.0 977.8 +28.0 1
21 14.08 штиль 0 10 км 9/0
[Ac As]
+25.2 +24.3 95 +35 +35 очень
душно
1012.3 979.1
00 15.08 ЮВ 1 10 км 9/0
[Ac As]
+24.6 +23.7 95 +33 +33 очень
душно
1012.5 979.5
03 15.08 штиль 0 10 км 9/0
[Ac As Ci sp]
+24.0 +23.3 96 +32 +32 очень
душно
1011.2 978.2
06 15.08 штиль 0 10 км 9/6 600 м
[Sc Ac As Ci sp]
+24.3 +23.4 95 +33 +33 очень
душно
1012.7 979.6 +23.7 9
09 15.08 З 1 10 км 9/1 600 м
[Cu Sc Ac As Ci sp]
+26.7 +22.8 79 +35 +43 очень
душно
1014.0 981.0
12 15.08 ЮЗ 2 10 км 9/6 600 м
[Cu Sc Ac As Ci sp]
+29.4 +23.3 70 +40 +45 очень
душно
1012.5 979.6
15 15.08 СЗ 1 10 км 9/5 600 м
[Cu Sc Ac As Ci sp]
+31.1 +23.1 63 +42 +45 опасность
перегрева
1010.2 977.5
18 15.08 СЗ 1 10 км 9/1 600 м
[Cu Sc Ac trans Ci sp]
+29.6 +25.3 78 +43 +43 опасность
перегрева
1010.5 977.7 +31.5
21 15.08 Ю 1 10 км 9/1 600 м
[Cu Sc Ac As Ci sp]
+27.4 +25.2 88 +40 +40 очень
душно
1012.3 979.4
00 16.08 штиль 0 10 км 8/0
[Ac As Ci sp]
+26.4 +24.3 88 +37 +37 очень
душно
1011.9 979.2
03 16.08 ЮЗ 1 10 км 6/0
[Ci sp]
+25.5 +24.4 94 +36 +36 очень
душно
1010.5 977.9
06 16.08 СЗ 1 10 км 8/0
[Ac As Ci sp]
+24.7 +23.7 94 +34 +34 очень
душно
1011.0 978.2 +24.5
09 16.08 СЗ 2 10 км 8/1 600 м
[Cu Sc Ci sp]
+28.0 +24.3 80 +39 +49 очень
душно
1012.0 979.2
12 16.08 СЗ 2 10 км 9/5 600 м
[Cu Sc Ci sp]
+31.0 +24.6 69 +44 +53 опасность
перегрева
1011.3 978.6
15 16.08 С 3 10 км 9/5 600 м
[Cu Sc As trans Ci sp]
+31.8 +24.2 64 +44 +46 опасность
перегрева
1009.1 976.5

 

Местоположение метеостанции Kandi (Бенин): широта 11.13 долгота 2.93 высота над уровнем моря 292 м.

В архиве по умолчанию представлена погода в Kandi за последнюю неделю. Архивные данные за месяц целиком и за предыдущие месяцы, начиная с января 2011 года, Вы можете получить, выбрав интересующий диапазон дат из раскрывающегося списка и нажав кнопку "Ввод!".

Внимание! Время в таблицах - всемирное. Для получения местного времени необходимо прибавить поправку, которая в Kandi равна 1 ч.

Смотрите также архив погоды в соседних городах и на ближайших метеорологических станциях:

Погода в Gaya (Нигер) (101 км)
Погода в Natitingou (Бенин) (192 км)
Погода в Yelwa (Нигерия) (201 км)
Погода в Parakou (Бенин) (201 км)
Погода в Dosso (Нигер) (211 км)
Погода в Niamtougou (Того) (251 км)
Погода в Kara (Того) (261 км)
Погода в Niamey-Aero (Нигер) (274 км)
Погода в Mango (Того) (282 км)
Погода в Dapaon (Того) (283 км)

Пояснения к столбцам:

Ветер - указаны скорость ветра в м/с - средняя за 10 мин, порывы в срок и между сроками (в фигурных скобках) и направление, откуда дует ветер: С - северный, СВ - северо-восточный, В - восточный, ЮВ - юго-восточный, Ю - южный, ЮЗ - юго-западный, З - западный, СЗ - северо-западный.
Видимость - горизонтальная дальность видимости в метрах или километрах. При видимости от 1 до 10 км при отсутствии осадков обычно наблюдается дымка, при ухудшении видимости до 1 км и менее - туман. В сухую погоду видимость может ухудшаться дымом, пылью или мглою.
Явления - указаны атмосферные явления, наблюдавшиеся в срок или в последний час перед сроком; фигурными скобками обозначены явления, наблюдавшиеся между сроками (за 1-3 часа до срока); квадратными скобками обозначены град или гололедные отложения с указанием их диаметра в мм.
Облачность - указаны через наклонную черту общая и нижняя облачность в баллах и высота нижней границы облаков в метрах; квадратными скобками обозначены формы облаков: Ci - перистые, Cs - перисто-слоистые, Cc - перисто-кучевые, Ac - высококучевые, As - высокослоистые, Sc - слоисто-кучевые, Ns - слоисто-дождевые, Cu - кучевые, Cb - кучево-дождевые. Подробнее классификацию облаков см. в Атласе облаков (PDF).
T - Температура воздуха - температура, измеренная на высоте 2 м над землей.
Td - Температура точки росы - температура, при понижении до которой содержащийся в воздухе водяной пар достигнет насыщения.
f - Относительная влажность воздуха - влажноcть воздуха, измеренная на высоте 2 м над землей.
Te - Эффективная температура - температура, которую ощущает одетый по сезону человек в тени. Характеристика душности погоды. При расчете учитывается влияние влажности воздуха и скорости ветра на теплоощущения человека.
Tes - Эффективная температура на солнце - температура, которую ощущает человек, с поправкой на солнечный нагрев. Характеристика знойности погоды. Зависит от высоты солнца над горизонтом, облачности и скорости ветра. Ночью, в пасмурную погоду, а также при ветре 12 м/с и более поправка равна нулю.
P - Атмосферное давление - приведенное к уровню моря атмосферное давление.
Po - Атмосферное давление - измеренное на уровне метеостанции атмосферное давление.
Tmin - Минимальная температура - минимум температуры воздуха на высоте 2 м над землей.
Tmax - Максимальная температура - максимум температуры воздуха на высоте 2 м над землей.
R - Количество осадков - Количество выпавших осадков за период времени, мм. При наведении курсора мыши на число - период времени, за который выпало указанное количество осадков.
R24 - Количество осадков - Количество выпавших осадков за 24 часа, мм.
S - Снежный покров - Высота снежного покрова, см. При наведении курсора мыши на число - состояние снежного покрова и степень покрытия местности в баллах.